Regional Weather Roundup
Issued by NWS

Home | Current Version | Previous Version | Graphics & Text | Print | Product List | Glossary On
Versions: 1 2 3 4 5 6 7 8 9 10 11 12 13 14 15 16 17 18 19 20 21 22 23 24 25 26 27 28 29 30 31 32 33 34 35 36 37 38 39 40 41 42 43 44 45 46 47 48 49 50
000
ASUS43 KMPX 311801
RWRMN
WEATHER ROUNDUP FOR MINNESOTA
NATIONAL WEATHER SERVICE TWIN CITIES/CHANHASSEN MN
100 PM CDT FRI OCT 31 2014


NOTE: "FAIR" INDICATES FEW OR NO CLOUDS BELOW 12,000 FEET WITH NO
SIGNIFICANT WEATHER AND/OR OBSTRUCTIONS TO VISIBILITY. N/A MEANS
CURRENT SKY AND/OR WEATHER CONDITIONS ARE NOT AVAILABLE.

MNZ060>063-068>070-311900-
   Twin Cities Metro

CITY           SKY/WX    TMP DP  RH WIND       PRES   REMARKS
TWIN CITIES    SUNNY     36  17  46 NE10G20   30.55F
6HR MIN TEMP:  26; 6HR MAX TEMP:  36;

ST PAUL        SUNNY     37  19  48 N9G16     30.56F
CRYSTAL        SUNNY     37  17  44 VRB7      30.54F
BLAINE         SUNNY     37  19  48 N14G21    30.55F
LAKEVILLE      SUNNY     34  18  51 N9        30.53F WCI  26
EDEN PRAIRIE   SUNNY     37  18  46 NE9       30.54F
6HR MIN TEMP:  26; 6HR MAX TEMP:  37;

SOUTH ST PAUL  SUNNY     37  18  46 N6        30.54F
LAKE ELMO      FAIR      36  19  51 NE7       30.54F
$$
MNZ001>005-007-008-013>017-022>024-027-028-311900-
   Northwest Minnesota

CITY           SKY/WX    TMP DP  RH WIND       PRES   REMARKS
BEMIDJI        SUNNY     32  17  53 S3        30.53F
HALLOCK        SUNNY     36  21  55 S12G18    30.53F
ROSEAU         SUNNY     34  23  64 S8        30.54F WCI  27
WARROAD        SUNNY     34  25  69 S6        30.54F WCI  29
THIEF RVR FALL SUNNY     34  19  55 S5        30.55F WCI  30
CROOKSTON      SUNNY     34  21  60 S10       30.55F WCI  26
FOSSTON        SUNNY     36  21  55 CALM      30.55F
DETROIT LAKES  SUNNY     32  21  64 S3        30.54F
MOORHEAD       SUNNY     36  21  55 S7        30.56F
PARK RAPIDS    SUNNY     34  18  52 CALM      30.53F
MAHNOMEN       FAIR      32  21  64 SW5       30.55F WCI  27
$$
MNZ006-009>011-018-025>026-311900-
   North Central Minnesota

CITY           SKY/WX    TMP DP  RH WIND       PRES   REMARKS
BAUDETTE       SUNNY     32  21  64 CALM      30.54F
FLAG ISLAND    SUNNY     34  23  64 S7        30.52F WCI  28
INTL FALLS     SUNNY     35  20  54 NW6       30.53F WCI  30
6HR MIN TEMP:  19; 6HR MAX TEMP:  35;

WASKISH        SUNNY     32  19  59 CALM      30.55F
BIG FORK       SUNNY     34  18  51 CALM      30.54F
LONGVILLE      SUNNY     36  18  48 CALM      30.53F
GRAND RAPIDS   SUNNY     32  16  51 CALM      30.53F
CRANE LAKE     SUNNY     32  19  59 NW5       30.56F WCI  27
ORR            SUNNY     32  18  55 NW3       30.52S
COOK           SUNNY     32  19  59 NW3       30.54S
WALKER         FAIR      32  19  59 CALM      30.54F
$$
MNZ012-019>021-037-311900-
   Northeast Minnesota

CITY           SKY/WX    TMP DP  RH WIND       PRES   REMARKS
DULUTH         MOSUNNY   35  17  47 N6        30.50F WCI  30
6HR MIN TEMP:  25; 6HR MAX TEMP:  35;

ELY            SUNNY     30  18  59 NW5       30.51F WCI  25
HIBBING        SUNNY     34  17  50 VRB3      30.53F
EVELETH        SUNNY     32  23  69 NW6       30.53F WCI  26
DULUTH HARBOR  SUNNY     36  21  55 E3        30.55F
TWO HARBORS    SUNNY     39  23  52 CALM      30.50F
SILVER BAY     SUNNY     37  19  48 N6        30.49F
GRAND MARAIS     N/A     37  19  48 VRB7      30.51F
G MARAIS ARPRT MOSUNNY   28  16  59 NW9G16    30.46F WCI  20
$$
MNZ029>031-032-039>041-046>048-054>057-064-311900-
   West Central Minnesota

CITY           SKY/WX    TMP DP  RH WIND       PRES   REMARKS
FERGUS FALLS   SUNNY     34  18  51 CALM      30.57F
WHEATON        FAIR      30  21  69 SE3       30.58F
MORRIS         SUNNY     36  21  55 E3        30.56F
ALEXANDRIA     SUNNY     34  18  52 E5        30.56F WCI  30
ELBOW LAKE     FAIR      33  22  63 E3        30.55F
WADENA         SUNNY     34  19  55 CALM      30.54F
GLENWOOD       SUNNY     36  19  51 CALM      30.56F
APPLETON       SUNNY     36  19  51 CALM      30.57F
BENSON         SUNNY     36  21  55 CALM      30.58F
ORTONVILLE     SUNNY     34  19  55 CALM      30.57F
MADISON        SUNNY     36  23  60 CALM      30.57F
WILLMAR        FAIR      36  18  48 E3        30.58F
$$
MNZ033>034-036-042>043-049>051-058-059-311900-
   Central Minnesota

CITY           SKY/WX    TMP DP  RH WIND       PRES   REMARKS
ST CLOUD       SUNNY     38  17  42 N8        30.56F
6HR MIN TEMP:  24; 6HR MAX TEMP:  38;

SAUK CENTRE    FAIR      33  18  55 CALM      30.56F
PAYNESVILLE    SUNNY     32  17  53 N3        30.56F
AITKIN         SUNNY     37  18  44 NE3       30.53F
PINE RIVER     SUNNY     34  19  55 NW3       30.56F
BRAINERD       SUNNY     33  16  49 VRB3      30.55F
STAPLES        SUNNY     32  18  55 CALM      30.54F
LONG PRAIRIE   FAIR      32  19  59 CALM      30.56F
LITTLE FALLS   SUNNY     34  18  51 CALM      30.56F
LITCHFIELD     SUNNY     36  19  51 NW3       30.56F
BUFFALO        SUNNY     36  16  45 N6        30.56F
MAPLE LAKE     SUNNY     37  20  52 N7        30.57F
$$
MNZ037-044-045-052-053-311900-
   East Central Minnesota

CITY           SKY/WX    TMP DP  RH WIND       PRES   REMARKS
PRINCETON      SUNNY     37  18  44 N5        30.55F
MORA           SUNNY     36  19  51 N5        30.56F
CAMBRIDGE      SUNNY     37  21  52 NE8       30.53F
RUSH CITY      SUNNY     35  18  51 N3        30.55F
MOOSE LAKE     SUNNY     34  18  51 N6        30.52F WCI  29
HINCKLEY       FAIR      36  19  51 CALM      30.54F
CLOQUET        SUNNY     34  18  51 N3        30.51F
MCGREGOR       SUNNY     34  19  55 NE3       30.54F
$$
MNZ071>073-080-081-089-090-097-098-311900-
   Southwest Minnesota

CITY           SKY/WX    TMP DP  RH WIND       PRES   REMARKS
MONTEVIDEO     SUNNY     37  23  56 E3        30.59F
GRANITE FALLS  SUNNY     34  20  57 CALM      30.59F
CANBY          SUNNY     33  23  65 NE5       30.58F WCI  29
MARSHALL       SUNNY     34  19  55 N7        30.57F WCI  28
REDWOOD FALLS  SUNNY     36  19  50 NE6       30.57F
OLIVIA         SUNNY     36  21  55 CALM      30.55F
PIPESTONE      SUNNY     34  19  55 NE8       30.53F WCI  27
WINDOM         SUNNY     36  19  51 NW9       30.55F
WORTHINGTON    SUNNY     34  18  51 NE8       30.55F WCI  27
JACKSON        SUNNY     34  18  51 N9        30.54F WCI  26
TRACY          SUNNY     34  21  58 N7        30.57F WCI  28
SLAYTON        SUNNY     33  18  53 N8        30.56F WCI  26
$$
MNZ065>067-074>077-082>085-091>093-311900-
   South Central Minnesota

CITY           SKY/WX    TMP DP  RH WIND       PRES   REMARKS
MANKATO        SUNNY     36  16  44 N10G20    30.54F
NEW ULM        SUNNY     34  19  55 N6        30.56F WCI  29
ST JAMES       SUNNY     37  18  44 NW9       30.56F
FAIRMONT       SUNNY     36  16  44 N13       30.54F
GLENCOE        SUNNY     37  21  53 N6        30.55F
FARIBAULT      SUNNY     37  18  44 N10       30.53F
OWATONNA       SUNNY     36  18  48 N15       30.52F
WASECA         SUNNY     36  16  44 N9        30.54F
ALBERT LEA     SUNNY     37  18  44 N12G17    30.50F
$$
MNZ078>079-086>088-094>096-311900-
   Southeast Minnesota

CITY           SKY/WX    TMP DP  RH WIND       PRES   REMARKS
ROCHESTER      MOSUNNY   37  20  50 N15G23    30.49F
6HR MIN TEMP:  25; 6HR MAX TEMP:  37;

RED WING       SUNNY     39  16  38 N7        30.51F
STANTON        SUNNY     38  19  45 N9G16     30.52F
DODGE CENTER   SUNNY     36  19  51 N13G20    30.49F
WINONA         PTSUNNY   37  21  52 N8G16     30.49S
AUSTIN         SUNNY     36  18  48 N10G20    30.49S
PRESTON        MOSUNNY   35  19  51 N14G20    30.46F WCI  26
$$
ABBREVIATIONS USED IN REMARKS
   TC - TEMPERATURES IN CELSIUS
  WCI - WIND CHILL INDEX
   HX - HEAT INDEX
  VSB - VISIBILITY
$$



USA.gov is the U.S. government's official web portal to all federal, state and local government web resources and services.